Year,Month,Day,Hour,Minute,Value (Times are PST for temperature in C)
2021,06,26,00,00,22.40
2021,06,26,00,01,22.30
2021,06,26,00,02,22.30
2021,06,26,00,03,22.30
2021,06,26,00,04,22.30
2021,06,26,00,05,22.30
2021,06,26,00,06,22.20
2021,06,26,00,07,22.20
2021,06,26,00,08,22.20
2021,06,26,00,09,22.20
2021,06,26,00,10,22.20
2021,06,26,00,11,22.10
2021,06,26,00,12,22.10
2021,06,26,00,13,22.10
2021,06,26,00,14,22.10
2021,06,26,00,15,22.10
2021,06,26,00,16,22.00
2021,06,26,00,17,22.10
2021,06,26,00,18,22.00
2021,06,26,00,19,22.00
2021,06,26,00,20,22.00
2021,06,26,00,21,21.90
2021,06,26,00,22,21.90
2021,06,26,00,23,21.90
2021,06,26,00,24,21.90
2021,06,26,00,25,21.90
2021,06,26,00,26,21.90
2021,06,26,00,27,21.90
2021,06,26,00,28,21.80
2021,06,26,00,29,21.80
2021,06,26,00,30,21.80
2021,06,26,00,31,21.80
2021,06,26,00,32,21.80
2021,06,26,00,33,21.80
2021,06,26,00,34,21.80
2021,06,26,00,35,21.80
2021,06,26,00,36,21.80
2021,06,26,00,37,21.70
2021,06,26,00,38,21.70
2021,06,26,00,39,21.70
2021,06,26,00,40,21.70
2021,06,26,00,41,21.70
2021,06,26,00,42,21.70
2021,06,26,00,43,21.70
2021,06,26,00,44,21.70
2021,06,26,00,45,21.70
2021,06,26,00,46,21.70
2021,06,26,00,47,21.60
2021,06,26,00,48,21.70
2021,06,26,00,49,21.60
2021,06,26,00,50,21.60
2021,06,26,00,51,21.60
2021,06,26,00,52,21.60
2021,06,26,00,53,21.60
2021,06,26,00,54,21.60
2021,06,26,00,55,21.60
2021,06,26,00,56,21.60
2021,06,26,00,57,21.60
2021,06,26,00,58,21.50
2021,06,26,00,59,21.50
2021,06,26,01,00,21.50
2021,06,26,01,01,21.50
2021,06,26,01,02,21.50
2021,06,26,01,03,21.50
2021,06,26,01,04,21.40
2021,06,26,01,05,21.40
2021,06,26,01,06,21.40
2021,06,26,01,07,21.40
2021,06,26,01,08,21.40
2021,06,26,01,09,21.40
2021,06,26,01,10,21.40
2021,06,26,01,11,21.40
2021,06,26,01,12,21.40
2021,06,26,01,13,21.30
2021,06,26,01,14,21.30
2021,06,26,01,15,21.30
2021,06,26,01,16,21.30
2021,06,26,01,17,21.30
2021,06,26,01,18,21.30
2021,06,26,01,19,21.30
2021,06,26,01,20,21.20
2021,06,26,01,21,21.20
2021,06,26,01,22,21.20
2021,06,26,01,23,21.20
2021,06,26,01,24,21.20
2021,06,26,01,25,21.20
2021,06,26,01,26,21.10
2021,06,26,01,27,21.10
2021,06,26,01,28,21.10
2021,06,26,01,29,21.10
2021,06,26,01,30,21.10
2021,06,26,01,31,21.10
2021,06,26,01,32,21.10
2021,06,26,01,33,21.10
2021,06,26,01,34,21.10
2021,06,26,01,35,21.10
2021,06,26,01,36,21.10
2021,06,26,01,37,21.10
2021,06,26,01,38,21.10
2021,06,26,01,39,21.10
2021,06,26,01,40,21.10
2021,06,26,01,41,21.10
2021,06,26,01,42,21.10
2021,06,26,01,43,21.10
2021,06,26,01,44,21.10
2021,06,26,01,45,21.10
2021,06,26,01,46,21.10
2021,06,26,01,47,21.10
2021,06,26,01,48,21.10
2021,06,26,01,49,21.00
2021,06,26,01,50,21.00
2021,06,26,01,51,21.00
2021,06,26,01,52,20.90
2021,06,26,01,53,20.90
2021,06,26,01,54,20.90
2021,06,26,01,55,20.80
2021,06,26,01,56,20.80
2021,06,26,01,57,20.80
2021,06,26,01,58,20.80
2021,06,26,01,59,20.80
2021,06,26,02,00,20.70
2021,06,26,02,01,20.70
2021,06,26,02,02,20.70
2021,06,26,02,03,20.70
2021,06,26,02,04,20.70
2021,06,26,02,05,20.70
2021,06,26,02,06,20.70
2021,06,26,02,07,20.60
2021,06,26,02,08,20.60
2021,06,26,02,09,20.60
2021,06,26,02,10,20.60
2021,06,26,02,11,20.60
2021,06,26,02,12,20.50
2021,06,26,02,13,20.50
2021,06,26,02,14,20.50
2021,06,26,02,15,20.50
2021,06,26,02,16,20.50
2021,06,26,02,17,20.50
2021,06,26,02,18,20.40
2021,06,26,02,19,20.40
2021,06,26,02,20,20.40
2021,06,26,02,21,20.40
2021,06,26,02,22,20.40
2021,06,26,02,23,20.40
2021,06,26,02,24,20.30
2021,06,26,02,25,20.30
2021,06,26,02,26,20.30
2021,06,26,02,27,20.30
2021,06,26,02,28,20.30
2021,06,26,02,29,20.30
2021,06,26,02,30,20.20
2021,06,26,02,31,20.20
2021,06,26,02,32,20.20
2021,06,26,02,33,20.20
2021,06,26,02,34,20.20
2021,06,26,02,35,20.20
2021,06,26,02,36,20.20
2021,06,26,02,37,20.20
2021,06,26,02,38,20.20
2021,06,26,02,39,20.20
2021,06,26,02,40,20.20
2021,06,26,02,41,20.20
2021,06,26,02,42,20.20
2021,06,26,02,43,20.20
2021,06,26,02,44,20.20
2021,06,26,02,45,20.20
2021,06,26,02,46,20.20
2021,06,26,02,47,20.20
2021,06,26,02,48,20.20
2021,06,26,02,49,20.20
2021,06,26,02,50,20.20
2021,06,26,02,51,20.20
2021,06,26,02,52,20.20
2021,06,26,02,53,20.20
2021,06,26,02,54,20.20
2021,06,26,02,55,20.20
2021,06,26,02,56,20.20
2021,06,26,02,57,20.20
2021,06,26,02,58,20.20
2021,06,26,02,59,20.20
2021,06,26,03,00,20.20
2021,06,26,03,01,20.30
2021,06,26,03,02,20.30
2021,06,26,03,03,20.30
2021,06,26,03,04,20.30
2021,06,26,03,05,20.30
2021,06,26,03,06,20.30
2021,06,26,03,07,20.30
2021,06,26,03,08,20.30
2021,06,26,03,09,20.30
2021,06,26,03,10,20.30
2021,06,26,03,11,20.20
2021,06,26,03,12,20.20
2021,06,26,03,13,20.20
2021,06,26,03,14,20.20
2021,06,26,03,15,20.20
2021,06,26,03,16,20.10
2021,06,26,03,17,20.10
2021,06,26,03,18,20.10
2021,06,26,03,19,20.00
2021,06,26,03,20,20.00
2021,06,26,03,21,20.00
2021,06,26,03,22,19.90
2021,06,26,03,23,19.90
2021,06,26,03,24,19.90
2021,06,26,03,25,19.90
2021,06,26,03,26,19.80
2021,06,26,03,27,19.80
2021,06,26,03,28,19.80
2021,06,26,03,29,19.80
2021,06,26,03,30,19.80
2021,06,26,03,31,19.80
2021,06,26,03,32,19.80
2021,06,26,03,33,19.80
2021,06,26,03,34,19.80
2021,06,26,03,35,19.80
2021,06,26,03,36,19.80
2021,06,26,03,37,19.80
2021,06,26,03,38,19.80
2021,06,26,03,39,19.90
2021,06,26,03,40,19.90
2021,06,26,03,41,19.90
2021,06,26,03,42,19.90
2021,06,26,03,43,19.90
2021,06,26,03,44,19.90
2021,06,26,03,45,19.90
2021,06,26,03,46,19.90
2021,06,26,03,47,19.90
2021,06,26,03,48,19.90
2021,06,26,03,49,19.90
2021,06,26,03,50,19.80
2021,06,26,03,51,19.80
2021,06,26,03,52,19.80
2021,06,26,03,53,19.80
2021,06,26,03,54,19.70
2021,06,26,03,55,19.70
2021,06,26,03,56,19.70
2021,06,26,03,57,19.70
2021,06,26,03,58,19.70
2021,06,26,03,59,19.70
2021,06,26,04,00,19.70
2021,06,26,04,01,19.60
2021,06,26,04,02,19.60
2021,06,26,04,03,19.60
2021,06,26,04,04,19.60
2021,06,26,04,05,19.60
2021,06,26,04,06,19.60
2021,06,26,04,07,19.60
2021,06,26,04,08,19.60
2021,06,26,04,09,19.60
2021,06,26,04,10,19.60
2021,06,26,04,11,19.60
2021,06,26,04,12,19.60
2021,06,26,04,13,19.60
2021,06,26,04,14,19.60
2021,06,26,04,15,19.60
2021,06,26,04,16,19.60
2021,06,26,04,17,19.70
2021,06,26,04,18,19.70
2021,06,26,04,19,19.70
2021,06,26,04,20,19.70
2021,06,26,04,21,19.70
2021,06,26,04,22,19.70
2021,06,26,04,23,19.70
2021,06,26,04,24,19.80
2021,06,26,04,25,19.80
2021,06,26,04,26,19.80
2021,06,26,04,27,19.80
2021,06,26,04,28,19.80
2021,06,26,04,29,19.80
2021,06,26,04,30,19.80
2021,06,26,04,31,19.80
2021,06,26,04,32,19.70
2021,06,26,04,33,19.70
2021,06,26,04,34,19.60
2021,06,26,04,35,19.60
2021,06,26,04,36,19.60
2021,06,26,04,37,19.60
2021,06,26,04,38,19.50
2021,06,26,04,39,19.50
2021,06,26,04,40,19.40
2021,06,26,04,41,19.40
2021,06,26,04,42,19.40
2021,06,26,04,43,19.40
2021,06,26,04,44,19.30
2021,06,26,04,45,19.30
2021,06,26,04,46,19.30
2021,06,26,04,47,19.20
2021,06,26,04,48,19.20
2021,06,26,04,49,19.20
2021,06,26,04,50,19.20
2021,06,26,04,51,19.10
2021,06,26,04,52,19.10
2021,06,26,04,53,19.10
2021,06,26,04,54,19.10
2021,06,26,04,55,19.10
2021,06,26,04,56,19.00
2021,06,26,04,57,19.00
2021,06,26,04,58,18.90
2021,06,26,04,59,18.90
2021,06,26,05,00,18.90
2021,06,26,05,01,18.90
2021,06,26,05,02,18.90
2021,06,26,05,03,18.90
2021,06,26,05,04,18.90
2021,06,26,05,05,18.90
2021,06,26,05,06,18.90
2021,06,26,05,07,18.90
2021,06,26,05,08,18.90
2021,06,26,05,09,18.90
2021,06,26,05,10,18.90
2021,06,26,05,11,19.00
2021,06,26,05,12,19.00
2021,06,26,05,13,19.00
2021,06,26,05,14,19.00
2021,06,26,05,15,19.00
2021,06,26,05,16,19.00
2021,06,26,05,17,19.00
2021,06,26,05,18,18.90
2021,06,26,05,19,18.90
2021,06,26,05,20,18.90
2021,06,26,05,21,18.90
2021,06,26,05,22,18.90
2021,06,26,05,23,18.90
2021,06,26,05,24,18.90
2021,06,26,05,25,18.90
2021,06,26,05,26,18.90
2021,06,26,05,27,18.90
2021,06,26,05,28,19.00
2021,06,26,05,29,19.00
2021,06,26,05,30,19.00
2021,06,26,05,31,19.00
2021,06,26,05,32,19.00
2021,06,26,05,33,19.00
2021,06,26,05,34,19.00
2021,06,26,05,35,19.00
2021,06,26,05,36,19.00
2021,06,26,05,37,19.00
2021,06,26,05,38,19.00
2021,06,26,05,39,19.00
2021,06,26,05,40,19.00
2021,06,26,05,41,19.00
2021,06,26,05,42,19.00
2021,06,26,05,43,19.00
2021,06,26,05,44,19.00
2021,06,26,05,45,19.00
2021,06,26,05,46,19.00
2021,06,26,05,47,18.90
2021,06,26,05,48,18.90
2021,06,26,05,49,18.90
2021,06,26,05,50,18.90
2021,06,26,05,51,18.90
2021,06,26,05,52,18.90
2021,06,26,05,53,18.90
2021,06,26,05,54,18.90
2021,06,26,05,55,18.90
2021,06,26,05,56,18.90
2021,06,26,05,57,18.80
2021,06,26,05,58,18.80
2021,06,26,05,59,18.80
2021,06,26,06,00,18.80
2021,06,26,06,01,18.90
2021,06,26,06,02,18.90
2021,06,26,06,03,18.90
2021,06,26,06,04,18.90
2021,06,26,06,05,19.00
2021,06,26,06,06,19.00
2021,06,26,06,07,19.00
2021,06,26,06,08,19.10
2021,06,26,06,09,19.10
2021,06,26,06,10,19.10
2021,06,26,06,11,19.10
2021,06,26,06,12,19.10
2021,06,26,06,13,19.10
2021,06,26,06,14,19.20
2021,06,26,06,15,19.10
2021,06,26,06,16,19.10
2021,06,26,06,17,19.20
2021,06,26,06,18,19.20
2021,06,26,06,19,19.20
2021,06,26,06,20,19.20
2021,06,26,06,21,19.20
2021,06,26,06,22,19.20
2021,06,26,06,23,19.20
2021,06,26,06,24,19.20
2021,06,26,06,25,19.30
2021,06,26,06,26,19.30
2021,06,26,06,27,19.30
2021,06,26,06,28,19.30
2021,06,26,06,29,19.30
2021,06,26,06,30,19.30
2021,06,26,06,31,19.40
2021,06,26,06,32,19.40
2021,06,26,06,33,19.40
2021,06,26,06,34,19.50
2021,06,26,06,35,19.50
2021,06,26,06,36,19.50
2021,06,26,06,37,19.50
2021,06,26,06,38,19.60
2021,06,26,06,39,19.60
2021,06,26,06,40,19.60
2021,06,26,06,41,19.60
2021,06,26,06,42,19.60
2021,06,26,06,43,19.60
2021,06,26,06,44,19.60
2021,06,26,06,45,19.60
2021,06,26,06,46,19.60
2021,06,26,06,47,19.60
2021,06,26,06,48,19.70
2021,06,26,06,49,19.70
2021,06,26,06,50,19.70
2021,06,26,06,51,19.80
2021,06,26,06,52,19.80
2021,06,26,06,53,19.90
2021,06,26,06,54,20.00
2021,06,26,06,55,20.10
2021,06,26,06,56,20.10
2021,06,26,06,57,20.20
2021,06,26,06,58,20.20
2021,06,26,06,59,20.20
2021,06,26,07,00,20.20
2021,06,26,07,01,20.20
2021,06,26,07,02,20.30
2021,06,26,07,03,20.30
2021,06,26,07,04,20.40
2021,06,26,07,05,20.40
2021,06,26,07,06,20.40
2021,06,26,07,07,20.40
2021,06,26,07,08,20.50
2021,06,26,07,09,20.50
2021,06,26,07,10,20.50
2021,06,26,07,11,20.60
2021,06,26,07,12,20.70
2021,06,26,07,13,20.70
2021,06,26,07,14,20.80
2021,06,26,07,15,20.80
2021,06,26,07,16,20.90
2021,06,26,07,17,21.00
2021,06,26,07,18,21.10
2021,06,26,07,19,21.20
2021,06,26,07,20,21.30
2021,06,26,07,21,21.30
2021,06,26,07,22,21.40
2021,06,26,07,23,21.50
2021,06,26,07,24,21.50
2021,06,26,07,25,21.60
2021,06,26,07,26,21.70
2021,06,26,07,27,21.70
2021,06,26,07,28,21.70
2021,06,26,07,29,21.80
2021,06,26,07,30,21.90
2021,06,26,07,31,22.00
2021,06,26,07,32,22.00
2021,06,26,07,33,22.10
2021,06,26,07,34,22.10
2021,06,26,07,35,22.10
2021,06,26,07,36,22.10
2021,06,26,07,37,22.10
2021,06,26,07,38,22.10
2021,06,26,07,39,22.10
2021,06,26,07,40,22.10
2021,06,26,07,41,22.10
2021,06,26,07,42,22.10
2021,06,26,07,43,22.10
2021,06,26,07,44,22.20
2021,06,26,07,45,22.30
2021,06,26,07,46,22.40
2021,06,26,07,47,22.50
2021,06,26,07,48,22.50
2021,06,26,07,49,22.60
2021,06,26,07,50,22.70
2021,06,26,07,51,22.70
2021,06,26,07,52,22.80
2021,06,26,07,53,22.90
2021,06,26,07,54,23.00
2021,06,26,07,55,23.00
2021,06,26,07,56,23.10
2021,06,26,07,57,23.10
2021,06,26,07,58,23.20
2021,06,26,07,59,23.20
2021,06,26,08,00,23.30
2021,06,26,08,01,23.30
2021,06,26,08,02,23.30
2021,06,26,08,03,23.40
2021,06,26,08,04,23.50
2021,06,26,08,05,23.40
2021,06,26,08,06,23.40
2021,06,26,08,07,23.30
2021,06,26,08,08,23.30
2021,06,26,08,09,23.30
2021,06,26,08,10,23.30
2021,06,26,08,11,23.20
2021,06,26,08,12,23.30
2021,06,26,08,13,23.30
2021,06,26,08,14,23.30
2021,06,26,08,15,23.40
2021,06,26,08,16,23.50
2021,06,26,08,17,23.60
2021,06,26,08,18,23.70
2021,06,26,08,19,23.90
2021,06,26,08,20,24.00
2021,06,26,08,21,24.20
2021,06,26,08,22,24.40
2021,06,26,08,23,24.50
2021,06,26,08,24,24.70
2021,06,26,08,25,24.90
2021,06,26,08,26,25.00
2021,06,26,08,27,25.10
2021,06,26,08,28,25.40
2021,06,26,08,29,25.60
2021,06,26,08,30,25.70
2021,06,26,08,31,25.90
2021,06,26,08,32,26.10
2021,06,26,08,33,26.30
2021,06,26,08,34,26.50
2021,06,26,08,35,26.70
2021,06,26,08,36,26.90
2021,06,26,08,37,27.10
2021,06,26,08,38,27.30
2021,06,26,08,39,27.40
2021,06,26,08,40,27.60
2021,06,26,08,41,27.70
2021,06,26,08,42,27.90
2021,06,26,08,43,28.10
2021,06,26,08,44,28.30
2021,06,26,08,45,28.50
2021,06,26,08,46,28.60
2021,06,26,08,47,28.70
2021,06,26,08,48,28.80
2021,06,26,08,49,28.80
2021,06,26,08,50,28.80
2021,06,26,08,51,28.90
2021,06,26,08,52,29.00
2021,06,26,08,53,29.00
2021,06,26,08,54,29.00
2021,06,26,08,55,29.10
2021,06,26,08,56,29.20
2021,06,26,08,57,29.30
2021,06,26,08,58,29.40
2021,06,26,08,59,29.50
2021,06,26,09,00,29.60
2021,06,26,09,01,29.70
2021,06,26,09,02,29.80
2021,06,26,09,03,29.90
2021,06,26,09,04,30.00
2021,06,26,09,05,30.10
2021,06,26,09,06,30.10
2021,06,26,09,07,30.10
2021,06,26,09,08,30.10
2021,06,26,09,09,30.20
2021,06,26,09,10,30.20
2021,06,26,09,11,30.20
2021,06,26,09,12,30.30
2021,06,26,09,13,30.40
2021,06,26,09,14,30.50
2021,06,26,09,15,30.50
2021,06,26,09,16,30.40
2021,06,26,09,17,30.50
2021,06,26,09,18,30.50
2021,06,26,09,19,30.40
2021,06,26,09,20,30.40
2021,06,26,09,21,30.50
2021,06,26,09,22,30.50
2021,06,26,09,23,30.60
2021,06,26,09,24,30.70
2021,06,26,09,25,30.80
2021,06,26,09,26,30.80
2021,06,26,09,27,30.80
2021,06,26,09,28,30.80
2021,06,26,09,29,30.80
2021,06,26,09,30,30.90
2021,06,26,09,31,30.90
2021,06,26,09,32,31.00
2021,06,26,09,33,31.10
2021,06,26,09,34,31.10
2021,06,26,09,35,31.20
2021,06,26,09,36,31.20
2021,06,26,09,37,31.20
2021,06,26,09,38,31.30
2021,06,26,09,39,31.30
2021,06,26,09,40,31.40
2021,06,26,09,41,31.40
2021,06,26,09,42,31.50
2021,06,26,09,43,31.60
2021,06,26,09,44,31.60
2021,06,26,09,45,31.70
2021,06,26,09,46,31.80
2021,06,26,09,47,31.80
2021,06,26,09,48,31.70
2021,06,26,09,49,31.60
2021,06,26,09,50,31.40
2021,06,26,09,51,31.30
2021,06,26,09,52,31.20
2021,06,26,09,53,31.10
2021,06,26,09,54,31.20
2021,06,26,09,55,31.20
2021,06,26,09,56,31.30
2021,06,26,09,57,31.40
2021,06,26,09,58,31.50
2021,06,26,09,59,31.60
2021,06,26,10,00,31.60
2021,06,26,10,01,31.50
2021,06,26,10,02,31.40
2021,06,26,10,03,31.30
2021,06,26,10,04,31.30
2021,06,26,10,05,31.30
2021,06,26,10,06,31.30
2021,06,26,10,07,31.30
2021,06,26,10,08,31.50
2021,06,26,10,09,31.60
2021,06,26,10,10,31.70
2021,06,26,10,11,31.80
2021,06,26,10,12,31.90
2021,06,26,10,13,32.00
2021,06,26,10,14,32.10
2021,06,26,10,15,32.10
2021,06,26,10,16,32.20
2021,06,26,10,17,32.30
2021,06,26,10,18,32.40
2021,06,26,10,19,32.50
2021,06,26,10,20,32.70
2021,06,26,10,21,32.80
2021,06,26,10,22,32.80
2021,06,26,10,23,32.90
2021,06,26,10,24,32.90
2021,06,26,10,25,33.00
2021,06,26,10,26,33.00
2021,06,26,10,27,33.00
2021,06,26,10,28,33.00
2021,06,26,10,29,33.10
2021,06,26,10,30,33.10
2021,06,26,10,31,33.20
2021,06,26,10,32,33.10
2021,06,26,10,33,33.10
2021,06,26,10,34,33.00
2021,06,26,10,35,32.90
2021,06,26,10,36,32.70
2021,06,26,10,37,32.50
2021,06,26,10,38,32.50
2021,06,26,10,39,32.50
2021,06,26,10,40,32.50
2021,06,26,10,41,32.50
2021,06,26,10,42,32.50
2021,06,26,10,43,32.60
2021,06,26,10,44,32.60
2021,06,26,10,45,32.60
2021,06,26,10,46,32.70
2021,06,26,10,47,32.80
2021,06,26,10,48,32.90
2021,06,26,10,49,32.90
2021,06,26,10,50,33.00
2021,06,26,10,51,33.00
2021,06,26,10,52,33.00
2021,06,26,10,53,33.00
2021,06,26,10,54,33.00
2021,06,26,10,55,33.00
2021,06,26,10,56,33.00
2021,06,26,10,57,33.00
2021,06,26,10,58,33.10
2021,06,26,10,59,33.00
2021,06,26,11,00,33.00
2021,06,26,11,01,33.00
2021,06,26,11,02,33.10
2021,06,26,11,03,33.20
2021,06,26,11,04,33.30
2021,06,26,11,05,33.40
2021,06,26,11,06,33.50
2021,06,26,11,07,33.70
2021,06,26,11,08,33.70
2021,06,26,11,09,33.60
2021,06,26,11,10,33.60
2021,06,26,11,11,33.60
2021,06,26,11,12,33.50
2021,06,26,11,13,33.40
2021,06,26,11,14,33.30
2021,06,26,11,15,33.30
2021,06,26,11,16,33.40
2021,06,26,11,17,33.40
2021,06,26,11,18,33.50
2021,06,26,11,19,33.40
2021,06,26,11,20,33.40
2021,06,26,11,21,33.40
2021,06,26,11,22,33.50
2021,06,26,11,23,33.50
2021,06,26,11,24,33.40
2021,06,26,11,25,33.40
2021,06,26,11,26,33.30
2021,06,26,11,27,33.30
2021,06,26,11,28,33.50
2021,06,26,11,29,33.60
2021,06,26,11,30,33.70
2021,06,26,11,31,33.80
2021,06,26,11,32,33.90
2021,06,26,11,33,34.00
2021,06,26,11,34,34.10
2021,06,26,11,35,34.10
2021,06,26,11,36,34.20
2021,06,26,11,37,34.20
2021,06,26,11,38,34.30
2021,06,26,11,39,34.40
2021,06,26,11,40,34.50
2021,06,26,11,41,34.60
2021,06,26,11,42,34.60
2021,06,26,11,43,34.70
2021,06,26,11,44,34.80
2021,06,26,11,45,35.00
2021,06,26,11,46,35.00
2021,06,26,11,47,34.90
2021,06,26,11,48,34.80
2021,06,26,11,49,34.90
2021,06,26,11,50,34.90
2021,06,26,11,51,34.90
2021,06,26,11,52,34.90
2021,06,26,11,53,34.90
2021,06,26,11,54,34.70
2021,06,26,11,55,34.60
2021,06,26,11,56,34.40
2021,06,26,11,57,34.40
2021,06,26,11,58,34.30
2021,06,26,11,59,34.30
2021,06,26,12,00,34.40
2021,06,26,12,01,34.30
2021,06,26,12,02,34.30
2021,06,26,12,03,34.30
2021,06,26,12,04,34.20
2021,06,26,12,05,34.20
2021,06,26,12,06,34.20
2021,06,26,12,07,34.20
2021,06,26,12,08,34.30
2021,06,26,12,09,34.40
2021,06,26,12,10,34.40
2021,06,26,12,11,34.50
2021,06,26,12,12,34.50
2021,06,26,12,13,34.50
2021,06,26,12,14,34.60
2021,06,26,12,15,34.80
2021,06,26,12,16,34.90
2021,06,26,12,17,34.90
2021,06,26,12,18,34.90
2021,06,26,12,19,34.90
2021,06,26,12,20,35.00
2021,06,26,12,21,35.00
2021,06,26,12,22,35.10
2021,06,26,12,23,35.10
2021,06,26,12,24,35.20
2021,06,26,12,25,35.30
2021,06,26,12,26,35.20
2021,06,26,12,27,35.20
2021,06,26,12,28,35.30
2021,06,26,12,29,35.10
2021,06,26,12,30,35.00
2021,06,26,12,31,34.80
2021,06,26,12,32,34.60
2021,06,26,12,33,34.40
2021,06,26,12,34,34.30
2021,06,26,12,35,34.40
2021,06,26,12,36,34.40
2021,06,26,12,37,34.50
2021,06,26,12,38,34.60
2021,06,26,12,39,34.80
2021,06,26,12,40,34.90
2021,06,26,12,41,35.00
2021,06,26,12,42,35.20
2021,06,26,12,43,35.20
2021,06,26,12,44,35.30
2021,06,26,12,45,35.30
2021,06,26,12,46,35.30
2021,06,26,12,47,35.40
2021,06,26,12,48,35.40
2021,06,26,12,49,35.40
2021,06,26,12,50,35.40
2021,06,26,12,51,35.40
2021,06,26,12,52,35.40
2021,06,26,12,53,35.40
2021,06,26,12,54,35.40
2021,06,26,12,55,35.40
2021,06,26,12,56,35.50
2021,06,26,12,57,35.60
2021,06,26,12,58,35.70
2021,06,26,12,59,35.80
2021,06,26,13,00,35.80
2021,06,26,13,01,35.80
2021,06,26,13,02,35.60
2021,06,26,13,03,35.40
2021,06,26,13,04,35.20
2021,06,26,13,05,35.10
2021,06,26,13,06,35.10
2021,06,26,13,07,35.30
2021,06,26,13,08,35.40
2021,06,26,13,09,35.50
2021,06,26,13,10,35.60
2021,06,26,13,11,35.60
2021,06,26,13,12,35.70
2021,06,26,13,13,35.80
2021,06,26,13,14,36.00
2021,06,26,13,15,36.00
2021,06,26,13,16,36.00
2021,06,26,13,17,35.80
2021,06,26,13,18,35.70
2021,06,26,13,19,35.70
2021,06,26,13,20,35.60
2021,06,26,13,21,35.60
2021,06,26,13,22,35.60
2021,06,26,13,23,35.40
2021,06,26,13,24,35.30
2021,06,26,13,25,35.20
2021,06,26,13,26,35.20
2021,06,26,13,27,35.20
2021,06,26,13,28,35.10
2021,06,26,13,29,35.10
2021,06,26,13,30,35.10
2021,06,26,13,31,35.10
2021,06,26,13,32,35.10
2021,06,26,13,33,35.30
2021,06,26,13,34,35.30
2021,06,26,13,35,35.40
2021,06,26,13,36,35.30
2021,06,26,13,37,35.20
2021,06,26,13,38,35.20
2021,06,26,13,39,35.20
2021,06,26,13,40,35.30
2021,06,26,13,41,35.30
2021,06,26,13,42,35.30
2021,06,26,13,43,35.30
2021,06,26,13,44,35.40
2021,06,26,13,45,35.40
2021,06,26,13,46,35.40
2021,06,26,13,47,35.40
2021,06,26,13,48,35.50
2021,06,26,13,49,35.50
2021,06,26,13,50,35.60
2021,06,26,13,51,35.70
2021,06,26,13,52,35.50
2021,06,26,13,53,35.30
2021,06,26,13,54,35.30
2021,06,26,13,55,35.20
2021,06,26,13,56,35.10
2021,06,26,13,57,35.20
2021,06,26,13,58,35.20
2021,06,26,13,59,35.30
2021,06,26,14,00,35.40
2021,06,26,14,01,35.50
2021,06,26,14,02,35.60
2021,06,26,14,03,35.60
2021,06,26,14,04,35.70
2021,06,26,14,05,35.80
2021,06,26,14,06,35.90
2021,06,26,14,07,36.10
2021,06,26,14,08,36.10
2021,06,26,14,09,36.10
2021,06,26,14,10,36.20
2021,06,26,14,11,36.20
2021,06,26,14,12,36.30
2021,06,26,14,13,36.30
2021,06,26,14,14,36.40
2021,06,26,14,15,36.40
2021,06,26,14,16,36.40
2021,06,26,14,17,36.40
2021,06,26,14,18,36.40
2021,06,26,14,19,36.20
2021,06,26,14,20,36.20
2021,06,26,14,21,36.30
2021,06,26,14,22,36.30
2021,06,26,14,23,36.40
2021,06,26,14,24,36.40
2021,06,26,14,25,36.50
2021,06,26,14,26,36.40
2021,06,26,14,27,36.30
2021,06,26,14,28,36.20
2021,06,26,14,29,36.20
2021,06,26,14,30,36.20
2021,06,26,14,31,36.30
2021,06,26,14,32,36.50
2021,06,26,14,33,36.60
2021,06,26,14,34,36.70
2021,06,26,14,35,36.70
2021,06,26,14,36,36.60
2021,06,26,14,37,36.60
2021,06,26,14,38,36.60
2021,06,26,14,39,36.60
2021,06,26,14,40,36.70
2021,06,26,14,41,36.70
2021,06,26,14,42,36.70
2021,06,26,14,43,36.80
2021,06,26,14,44,36.80
2021,06,26,14,45,36.80
2021,06,26,14,46,36.80
2021,06,26,14,47,36.90
2021,06,26,14,48,36.80
2021,06,26,14,49,36.80
2021,06,26,14,50,36.70
2021,06,26,14,51,36.60
2021,06,26,14,52,36.50
2021,06,26,14,53,36.40
2021,06,26,14,54,36.30
2021,06,26,14,55,36.30
2021,06,26,14,56,36.20
2021,06,26,14,57,36.20
2021,06,26,14,58,36.20
2021,06,26,14,59,36.30
2021,06,26,15,00,36.40
2021,06,26,15,01,36.50
2021,06,26,15,02,36.60
2021,06,26,15,03,36.70
2021,06,26,15,04,36.70
2021,06,26,15,05,36.70
2021,06,26,15,06,36.70
2021,06,26,15,07,36.70
2021,06,26,15,08,36.80
2021,06,26,15,09,36.80
2021,06,26,15,10,36.80
2021,06,26,15,11,36.70
2021,06,26,15,12,36.70
2021,06,26,15,13,36.70
2021,06,26,15,14,36.80
2021,06,26,15,15,36.90
2021,06,26,15,16,37.00
2021,06,26,15,17,37.10
2021,06,26,15,18,37.20
2021,06,26,15,19,37.10
2021,06,26,15,20,37.20
2021,06,26,15,21,37.20
2021,06,26,15,22,37.30
2021,06,26,15,23,37.40
2021,06,26,15,24,37.40
2021,06,26,15,25,37.40
2021,06,26,15,26,37.30
2021,06,26,15,27,37.20
2021,06,26,15,28,37.20
2021,06,26,15,29,37.20
2021,06,26,15,30,37.30
2021,06,26,15,31,37.20
2021,06,26,15,32,37.20
2021,06,26,15,33,37.20
2021,06,26,15,34,37.20
2021,06,26,15,35,37.10
2021,06,26,15,36,37.10
2021,06,26,15,37,37.10
2021,06,26,15,38,37.20
2021,06,26,15,39,37.30
2021,06,26,15,40,37.30
2021,06,26,15,41,37.40
2021,06,26,15,42,37.40
2021,06,26,15,43,37.50
2021,06,26,15,44,37.50
2021,06,26,15,45,37.60
2021,06,26,15,46,37.70
2021,06,26,15,47,37.80
2021,06,26,15,48,37.80
2021,06,26,15,49,37.80
2021,06,26,15,50,37.90
2021,06,26,15,51,38.00
2021,06,26,15,52,38.00
2021,06,26,15,53,37.90
2021,06,26,15,54,37.80
2021,06,26,15,55,37.80
2021,06,26,15,56,37.90
2021,06,26,15,57,37.90
2021,06,26,15,58,37.90
2021,06,26,15,59,37.90
2021,06,26,16,00,37.90
2021,06,26,16,01,37.90
2021,06,26,16,02,37.80
2021,06,26,16,03,37.70
2021,06,26,16,04,37.60
2021,06,26,16,05,37.60
2021,06,26,16,06,37.60
2021,06,26,16,07,37.60
2021,06,26,16,08,37.60
2021,06,26,16,09,37.60
2021,06,26,16,10,37.70
2021,06,26,16,11,37.60
2021,06,26,16,12,37.60
2021,06,26,16,13,37.60
2021,06,26,16,14,37.60
2021,06,26,16,15,37.60
2021,06,26,16,16,37.70
2021,06,26,16,17,37.70
2021,06,26,16,18,37.70
2021,06,26,16,19,37.70
2021,06,26,16,20,37.60
2021,06,26,16,21,37.60
2021,06,26,16,22,37.60
2021,06,26,16,23,37.50
2021,06,26,16,24,37.60
2021,06,26,16,25,37.60
2021,06,26,16,26,37.70
2021,06,26,16,27,37.70
2021,06,26,16,28,37.70
2021,06,26,16,29,37.80
2021,06,26,16,30,37.70
2021,06,26,16,31,37.80
2021,06,26,16,32,37.80
2021,06,26,16,33,37.80
2021,06,26,16,34,37.80
2021,06,26,16,35,37.90
2021,06,26,16,36,37.90
2021,06,26,16,37,37.90
2021,06,26,16,38,38.00
2021,06,26,16,39,38.00
2021,06,26,16,40,37.90
2021,06,26,16,41,37.80
2021,06,26,16,42,37.80
2021,06,26,16,43,37.80
2021,06,26,16,44,37.70
2021,06,26,16,45,37.60
2021,06,26,16,46,37.50
2021,06,26,16,47,37.50
2021,06,26,16,48,37.60
2021,06,26,16,49,37.70
2021,06,26,16,50,37.70
2021,06,26,16,51,37.80
2021,06,26,16,52,37.80
2021,06,26,16,53,37.90
2021,06,26,16,54,37.90
2021,06,26,16,55,37.80
2021,06,26,16,56,37.80
2021,06,26,16,57,37.80
2021,06,26,16,58,37.80
2021,06,26,16,59,37.80
2021,06,26,17,00,37.80
2021,06,26,17,01,37.80
2021,06,26,17,02,37.80
2021,06,26,17,03,37.70
2021,06,26,17,04,37.70
2021,06,26,17,05,37.70
2021,06,26,17,06,37.70
2021,06,26,17,07,37.70
2021,06,26,17,08,37.80
2021,06,26,17,09,37.80
2021,06,26,17,10,37.90
2021,06,26,17,11,38.00
2021,06,26,17,12,38.10
2021,06,26,17,13,38.20
2021,06,26,17,14,38.10
2021,06,26,17,15,38.00
2021,06,26,17,16,37.90
2021,06,26,17,17,37.70
2021,06,26,17,18,37.70
2021,06,26,17,19,37.70